Home > Time Zones > World Clock > Weather > Cuba > Havana > Past weeks

Flag for Cuba Weather past 2 weeks in Havana, Cuba

Now
79 °F

Passing clouds.


Feels Like: 82 °F
Forecast: 76 / 88 °F
Wind: 3 mph from East

Location: Aeropuerto Jose Marti - Rancho-Boyeros - Habana

Current Time: Apr 21, 2015 at 9:56:16 AM

Latest Report: Apr 21, 2015 at 8:55 AM


Visibility: 6 mi

Pressure: 30.01 "Hg

Humidity: 79%

Dew point: 72 °F

Location of HavanaLocation

Historic Weather in Havana — Graph

°F

Havana temperature yesterday

Maximum temperature yesterday: 90 °F (at 2:55 PM)
Minimum temperature yesterday: 70 °F (at 3:55 AM)
Average temperature yesterday: 80 °F

Past Weeks' High & Low Weather Summary

 TemperatureHumidityPressure
High91 °F (Apr 7, 1:55 PM)89% (Apr 13, 8:55 PM)30.12 "Hg (Apr 13, 8:55 PM)
Low68 °F (Apr 6, 7:55 AM)31% (Apr 6, 1:55 PM)29.89 "Hg (Apr 19, 4:55 PM)
Average79 °F69%30.03 "Hg
* Reported Apr 6 7:55 AM — Apr 21 7:55 AM, Havana, Weather by CustomWeather, © 2015

Note: Actual official high and low records may vary slightly from our data, if they occured in-between our weather recording intervals... More about our weather records

Advertising

Havana weather history for previous 24 hours

 ConditionsComfort  
Time TempWeatherWind HumidityBarometerVisibility
7:55 AM
Tue, Apr 21
73 °FPassing clouds.3 mph89%30.01 "Hg5 mi
6:55 AM73 °FPassing clouds.1 mph89%29.95 "Hg6 mi
5:55 AM72 °FPassing clouds.1 mph88%29.95 "Hg6 mi
4:55 AM72 °FPassing clouds.2 mph88%29.95 "Hg5 mi
3:55 AM72 °FPassing clouds.5 mph88%29.92 "Hg5 mi
2:55 AM73 °FClear.3 mph83%29.95 "Hg5 mi
1:55 AM73 °FClear.2 mph83%29.98 "Hg5 mi
12:55 AM73 °FClear.2 mph83%29.98 "Hg5 mi
11:55 PM
Mon, Apr 20
77 °FClear.2 mph79%29.98 "Hg5 mi
10:55 PM79 °FClear.1 mph74%29.98 "Hg5 mi
9:55 PM79 °FClear.3 mph70%29.98 "Hg5 mi
8:55 PM81 °FClear.7 mph66%29.95 "Hg5 mi
7:55 PM82 °FClear.8 mph62%29.92 "Hg5 mi
6:55 PM84 °FPartly sunny.12 mph58%29.92 "Hg5 mi
5:55 PM86 °FPartly sunny.13 mph49%29.89 "HgN/A
4:55 PM90 °FPartly sunny.13 mph41%29.89 "HgN/A
3:55 PM90 °FBroken clouds.12 mph41%29.92 "HgN/A
2:55 PM90 °FBroken clouds.13 mph43%29.92 "HgN/A
1:55 PM88 °FPartly sunny.14 mph43%29.95 "HgN/A
12:55 PM86 °FPartly sunny.15 mph52%29.95 "HgN/A
11:55 AM88 °FPartly sunny.14 mph46%29.95 "HgN/A
10:55 AM84 °FPartly sunny.13 mph62%29.95 "HgN/A
9:55 AM82 °FPartly sunny.12 mph66%29.95 "HgN/A
Weather by CustomWeather, © 2015

See weather overviewHow to use our weather pages